| time (UTC) | temp F | wind direction | speed MPH | gust MPH | rain 1hr in | rain 24hr in | rain mn in | humidity % | barometer mb |
| 20260902024107 | 63 | 249 | 0.0 | 3.0 | 0.00 | 0.54 | 0.54 | 96 | 1018.6 |
| 20260902023607 | 63 | 248 | 1.0 | 3.0 | 0.00 | 0.54 | 0.54 | 96 | 1018.6 |
| 20260902023106 | 63 | 248 | 1.0 | 2.0 | 0.00 | 0.54 | 0.54 | 96 | 1018.4 |
| 20260902022607 | 63 | 248 | 0.0 | 1.0 | 0.00 | 0.54 | 0.54 | 96 | 1018.5 |
| 20260902022106 | 63 | 248 | 0.0 | 1.0 | 0.00 | 0.54 | 0.54 | 96 | 1018.5 |
| 20260902021606 | 63 | 248 | 0.0 | 1.0 | 0.00 | 0.54 | 0.54 | 96 | 1018.6 |
| 20260902020106 | 63 | 234 | 0.0 | 2.0 | 0.00 | 0.54 | 0.54 | 96 | 1018.5 |
| 20260902014106 | 63 | 143 | 1.0 | 2.0 | 0.00 | 0.54 | 0.54 | 96 | 1018.2 |
| 20260902013606 | 63 | 143 | 0.0 | 2.0 | 0.00 | 0.54 | 0.54 | 96 | 1018.2 |
| 20260902013106 | 63 | 143 | 1.0 | 2.0 | 0.00 | 0.54 | 0.54 | 96 | 1017.9 |
| 20260902012106 | 63 | 244 | 1.0 | 3.0 | 0.00 | 0.54 | 0.54 | 96 | 1018.0 |
| 20260902011606 | 63 | 244 | 1.0 | 3.0 | 0.00 | 0.54 | 0.54 | 96 | 1017.9 |
| 20260902011106 | 63 | 182 | 1.0 | 5.0 | 0.00 | 0.54 | 0.54 | 96 | 1017.8 |
| 20260902010607 | 63 | 162 | 1.0 | 3.0 | 0.00 | 0.54 | 0.54 | 96 | 1017.6 |
| 20260902010106 | 63 | 176 | 2.0 | 6.0 | 0.00 | 0.54 | 0.54 | 96 | 1017.6 |
| 20260902005606 | 63 | 158 | 1.0 | 3.0 | 0.00 | 0.54 | 0.54 | 96 | 1017.9 |
| 20260902004606 | 63 | 240 | 1.0 | 3.0 | 0.00 | 0.54 | 0.54 | 96 | 1017.9 |
| 20260902004106 | 63 | 246 | 1.0 | 2.0 | 0.00 | 0.54 | 0.54 | 96 | 1017.8 |
| 20260902001606 | 63 | 172 | 3.0 | 7.0 | 0.01 | 0.54 | 0.54 | 95 | 1017.4 |
| 20260902001107 | 63 | 226 | 1.0 | 3.0 | 0.01 | 0.54 | 0.54 | 95 | 1017.7 |
| 20260902000606 | 63 | 182 | 3.0 | 8.0 | 0.02 | 0.54 | 0.54 | 95 | 1017.5 |
| 20260902000106 | 63 | 137 | 2.0 | 3.0 | 0.02 | 0.54 | 0.54 | 95 | 1017.5 |
| 20260901235606 | 64 | 200 | 1.0 | 3.0 | 0.04 | 0.54 | 0.54 | 95 | 1017.3 |
| 20260901235106 | 64 | 187 | 3.0 | 5.0 | 0.07 | 0.54 | 0.54 | 95 | 1017.4 |
| 20260901234606 | 64 | 161 | 1.0 | 3.0 | 0.15 | 0.54 | 0.54 | 95 | 1017.2 |
| 20260901233606 | 64 | 188 | 1.0 | 3.0 | 0.18 | 0.53 | 0.53 | 95 | 1017.2 |
| 20260901232106 | 64 | 174 | 1.0 | 7.0 | 0.18 | 0.53 | 0.53 | 95 | 1017.4 |
| 20260901231135 | 64 | 170 | 1.0 | 3.0 | 0.18 | 0.53 | 0.53 | 94 | 1017.2 |
| 20260901230606 | 64 | 177 | 1.0 | 3.0 | 0.18 | 0.53 | 0.53 | 94 | 1017.2 |
| 20260901230106 | 65 | 240 | 1.0 | 3.0 | 0.17 | 0.52 | 0.52 | 94 | 1017.2 |
| 20260901225606 | 65 | 254 | 1.0 | 3.0 | 0.16 | 0.51 | 0.51 | 94 | 1017.2 |
| 20260901225106 | 65 | 180 | 2.0 | 5.0 | 0.13 | 0.48 | 0.48 | 94 | 1016.9 |
| 20260901224606 | 65 | 192 | 2.0 | 5.0 | 0.07 | 0.42 | 0.42 | 94 | 1017.0 |
| 20260901223606 | 65 | 136 | 2.0 | 3.0 | 0.00 | 0.35 | 0.35 | 94 | 1016.9 |
| 20260901223107 | 66 | 161 | 2.0 | 5.0 | 0.00 | 0.35 | 0.35 | 94 | 1016.8 |
| 20260901222606 | 66 | 147 | 2.0 | 5.0 | 0.00 | 0.35 | 0.35 | 94 | 1016.6 |
| 20260901222107 | 66 | 219 | 1.0 | 7.0 | 0.00 | 0.35 | 0.35 | 94 | 1016.7 |
| 20260901220606 | 66 | 191 | 1.0 | 8.0 | 0.00 | 0.35 | 0.35 | 94 | 1016.5 |
| 20260901220106 | 66 | 166 | 1.0 | 8.0 | 0.00 | 0.35 | 0.35 | 94 | 1016.4 |
| 20260901215106 | 66 | 174 | 2.0 | 6.0 | 0.00 | 0.35 | 0.35 | 94 | 1016.3 |
| 20260901214606 | 66 | 142 | 2.0 | 8.0 | 0.00 | 0.35 | 0.35 | 94 | 1016.4 |
| 20260901214106 | 66 | 161 | 4.0 | 8.0 | 0.00 | 0.35 | 0.35 | 94 | 1016.4 |
| 20260901213606 | 67 | 220 | 2.0 | 6.0 | 0.00 | 0.35 | 0.35 | 94 | 1016.5 |
| 20260901212606 | 67 | 167 | 2.0 | 6.0 | 0.00 | 0.35 | 0.35 | 95 | 1016.3 |
| 20260901212106 | 67 | 155 | 5.0 | 8.0 | 0.00 | 0.35 | 0.35 | 94 | 1016.2 |
| 20260901211606 | 67 | 149 | 1.0 | 7.0 | 0.00 | 0.35 | 0.35 | 94 | 1016.2 |
| 20260901210605 | 67 | 154 | 3.0 | 6.0 | 0.00 | 0.35 | 0.35 | 94 | 1016.2 |
| 20260901210106 | 67 | 180 | 3.0 | 6.0 | 0.00 | 0.35 | 0.35 | 94 | 1016.1 |
| 20260901205106 | 68 | 172 | 2.0 | 9.0 | 0.00 | 0.35 | 0.35 | 94 | 1015.9 |
| 20260901204606 | 68 | 183 | 4.0 | 9.0 | 0.00 | 0.35 | 0.35 | 94 | 1015.9 |
| 20260901204106 | 68 | 168 | 3.0 | 8.0 | 0.00 | 0.35 | 0.35 | 94 | 1015.8 |
| 20260901203606 | 69 | 177 | 2.0 | 6.0 | 0.00 | 0.35 | 0.35 | 94 | 1015.8 |
| 20260901203106 | 69 | 190 | 3.0 | 6.0 | 0.00 | 0.35 | 0.35 | 94 | 1015.7 |
| 20260901202605 | 69 | 158 | 1.0 | 5.0 | 0.00 | 0.35 | 0.35 | 94 | 1015.7 |
| 20260901202106 | 69 | 183 | 3.0 | 9.0 | 0.00 | 0.35 | 0.35 | 94 | 1015.6 |
| 20260901201606 | 69 | 151 | 4.0 | 9.0 | 0.00 | 0.35 | 0.35 | 94 | 1015.7 |
| 20260901201106 | 70 | 160 | 2.0 | 7.0 | 0.00 | 0.35 | 0.35 | 94 | 1015.5 |
| 20260901200606 | 70 | 159 | 2.0 | 3.0 | 0.00 | 0.35 | 0.35 | 94 | 1015.6 |
| 20260901195106 | 71 | 176 | 1.0 | 3.0 | 0.00 | 0.35 | 0.35 | 93 | 1015.5 |
| 20260901194606 | 71 | 169 | 0.0 | 3.0 | 0.00 | 0.35 | 0.35 | 94 | 1015.4 |
| 20260901194108 | 71 | 164 | 0.0 | 5.0 | 0.00 | 0.35 | 0.35 | 94 | 1015.4 |
| 20260901193605 | 71 | 181 | 1.0 | 6.0 | 0.00 | 0.35 | 0.35 | 93 | 1015.4 |
| 20260901193106 | 72 | 173 | 3.0 | 10.0 | 0.00 | 0.35 | 0.35 | 93 | 1015.3 |
| 20260901192606 | 72 | 153 | 4.0 | 12.0 | 0.00 | 0.35 | 0.35 | 94 | 1015.3 |
| 20260901192106 | 73 | 164 | 4.0 | 14.0 | 0.00 | 0.35 | 0.35 | 95 | 1015.2 |
| 20260901191606 | 74 | 204 | 1.0 | 3.0 | 0.00 | 0.35 | 0.35 | 96 | 1015.0 |
| 20260901191106 | 74 | 220 | 0.0 | 2.0 | 0.00 | 0.35 | 0.35 | 96 | 1015.0 |
| 20260901190606 | 74 | 220 | 0.0 | 2.0 | 0.01 | 0.35 | 0.35 | 96 | 1015.0 |
| 20260901190106 | 74 | 220 | 1.0 | 2.0 | 0.01 | 0.35 | 0.35 | 96 | 1014.9 |
| 20260901185606 | 74 | 192 | 0.0 | 1.0 | 0.01 | 0.35 | 0.35 | 96 | 1014.9 |
| 20260901185106 | 74 | 192 | 0.0 | 2.0 | 0.01 | 0.35 | 0.35 | 96 | 1015.0 |
| 20260901184605 | 74 | 192 | 0.0 | 0.0 | 0.01 | 0.35 | 0.35 | 96 | 1015.0 |
| 20260901184106 | 73 | 192 | 0.0 | 0.0 | 0.01 | 0.35 | 0.35 | 96 | 1015.0 |
| 20260901183106 | 73 | 192 | 0.0 | 2.0 | 0.01 | 0.35 | 0.35 | 96 | 1015.0 |
| 20260901182605 | 73 | 221 | 0.0 | 1.0 | 0.01 | 0.35 | 0.35 | 96 | 1015.0 |
| 20260901182106 | 73 | 167 | 0.0 | 1.0 | 0.01 | 0.35 | 0.35 | 96 | 1015.1 |
| 20260901181606 | 73 | 168 | 2.0 | 5.0 | 0.01 | 0.35 | 0.35 | 96 | 1015.1 |
| 20260901181106 | 73 | 163 | 0.0 | 3.0 | 0.01 | 0.35 | 0.35 | 96 | 1015.2 |
| 20260901180606 | 73 | 159 | 1.0 | 5.0 | 0.00 | 0.34 | 0.34 | 96 | 1015.2 |
| 20260901180106 | 73 | 161 | 2.0 | 3.0 | 0.00 | 0.34 | 0.34 | 96 | 1015.3 |
| 20260901175606 | 73 | 161 | 1.0 | 3.0 | 0.00 | 0.34 | 0.34 | 96 | 1015.2 |
| 20260901175107 | 73 | 161 | 1.0 | 2.0 | 0.00 | 0.34 | 0.34 | 96 | 1015.2 |
| 20260901174605 | 73 | 161 | 2.0 | 3.0 | 0.00 | 0.34 | 0.34 | 96 | 1015.1 |
| 20260901174105 | 74 | 142 | 1.0 | 3.0 | 0.00 | 0.34 | 0.34 | 97 | 1015.2 |
| 20260901173605 | 74 | 140 | 0.0 | 3.0 | 0.00 | 0.34 | 0.34 | 97 | 1015.2 |
| 20260901173106 | 74 | 140 | 1.0 | 2.0 | 0.00 | 0.34 | 0.34 | 97 | 1015.1 |
| 20260901172606 | 73 | 184 | 1.0 | 2.0 | 0.00 | 0.34 | 0.34 | 97 | 1015.1 |
| 20260901171106 | 73 | 196 | 0.0 | 1.0 | 0.00 | 0.34 | 0.34 | 97 | 1015.0 |
| 20260901170606 | 72 | 196 | 1.0 | 2.0 | 0.00 | 0.34 | 0.34 | 97 | 1015.1 |
| 20260901170106 | 72 | 196 | 1.0 | 2.0 | 0.00 | 0.34 | 0.34 | 97 | 1015.2 |
| 20260901165606 | 73 | 196 | 0.0 | 1.0 | 0.00 | 0.34 | 0.34 | 97 | 1015.2 |
| 20260901165106 | 72 | 196 | 0.0 | 2.0 | 0.00 | 0.34 | 0.34 | 97 | 1015.3 |
| 20260901164606 | 73 | 216 | 1.0 | 3.0 | 0.00 | 0.34 | 0.34 | 97 | 1015.5 |
| 20260901164105 | 73 | 186 | 1.0 | 3.0 | 0.00 | 0.34 | 0.34 | 97 | 1015.5 |
| 20260901163605 | 72 | 185 | 0.0 | 2.0 | 0.00 | 0.34 | 0.34 | 97 | 1015.5 |
| 20260901163106 | 72 | 207 | 0.0 | 2.0 | 0.00 | 0.34 | 0.34 | 97 | 1015.4 |
| 20260901162606 | 72 | 189 | 0.0 | 1.0 | 0.00 | 0.34 | 0.34 | 97 | 1015.5 |
| 20260901162106 | 72 | 189 | 0.0 | 1.0 | 0.00 | 0.34 | 0.34 | 97 | 1015.7 |
| 20260901161606 | 73 | 190 | 0.0 | 0.0 | 0.00 | 0.34 | 0.34 | 97 | 1015.8 |
| 20260901161105 | 73 | 190 | 0.0 | 1.0 | 0.00 | 0.34 | 0.34 | 97 | 1015.7 |
| 20260901160606 | 73 | 190 | 0.0 | 1.0 | 0.00 | 0.34 | 0.34 | 97 | 1015.9 |
| 20260901155606 | 73 | 191 | 0.0 | 2.0 | 0.00 | 0.34 | 0.34 | 97 | 1015.9 |
| 20260901155107 | 72 | 187 | 0.0 | 1.0 | 0.00 | 0.34 | 0.34 | 97 | 1016.0 |
| 20260901154606 | 72 | 187 | 0.0 | 1.0 | 0.00 | 0.34 | 0.34 | 97 | 1016.0 |
| 20260901154105 | 72 | 187 | 1.0 | 3.0 | 0.00 | 0.34 | 0.34 | 97 | 1016.0 |
| 20260901153606 | 73 | 190 | 0.0 | 2.0 | 0.00 | 0.34 | 0.34 | 97 | 1015.9 |
| 20260901153106 | 72 | 190 | 1.0 | 2.0 | 0.00 | 0.34 | 0.34 | 97 | 1016.0 |
| 20260901152606 | 72 | 191 | 0.0 | 2.0 | 0.00 | 0.34 | 0.34 | 97 | 1015.8 |
| 20260901152106 | 72 | 180 | 1.0 | 2.0 | 0.00 | 0.34 | 0.34 | 97 | 1015.8 |
| 20260901151606 | 72 | 180 | 0.0 | 1.0 | 0.01 | 0.34 | 0.34 | 97 | 1016.0 |
| 20260901151106 | 72 | 180 | 0.0 | 1.0 | 0.01 | 0.34 | 0.34 | 97 | 1016.0 |
| 20260901150606 | 72 | 180 | 0.0 | 1.0 | 0.01 | 0.34 | 0.34 | 97 | 1015.9 |
| 20260901150106 | 72 | 203 | 1.0 | 2.0 | 0.01 | 0.34 | 0.34 | 97 | 1015.9 |
| 20260901145606 | 71 | 214 | 0.0 | 1.0 | 0.02 | 0.34 | 0.34 | 97 | 1016.0 |
| 20260901145106 | 71 | 213 | 1.0 | 3.0 | 0.03 | 0.34 | 0.34 | 97 | 1016.1 |
| 20260901144606 | 71 | 163 | 0.0 | 2.0 | 0.04 | 0.34 | 0.34 | 97 | 1016.2 |
| 20260901144106 | 71 | 163 | 0.0 | 2.0 | 0.06 | 0.34 | 0.34 | 97 | 1016.2 |
| 20260901143606 | 71 | 162 | 0.0 | 2.0 | 0.07 | 0.34 | 0.34 | 97 | 1016.2 |
| 20260901142606 | 71 | 163 | 0.0 | 0.0 | 0.08 | 0.34 | 0.34 | 97 | 1016.4 |
| 20260901142105 | 71 | 158 | 0.0 | 0.0 | 0.08 | 0.34 | 0.34 | 97 | 1016.4 |
| 20260901141606 | 71 | 158 | 0.0 | 0.0 | 0.08 | 0.33 | 0.33 | 97 | 1016.5 |
| 20260901140606 | 71 | 158 | 0.0 | 0.0 | 0.08 | 0.33 | 0.33 | 97 | 1016.4 |
| 20260901140106 | 71 | 158 | 0.0 | 0.0 | 0.08 | 0.33 | 0.33 | 97 | 1016.3 |
| 20260901135106 | 71 | 211 | 0.0 | 0.0 | 0.06 | 0.31 | 0.31 | 97 | 1016.5 |
| 20260901134606 | 71 | 211 | 0.0 | 0.0 | 0.05 | 0.30 | 0.30 | 97 | 1016.6 |
| 20260901134106 | 71 | 211 | 0.0 | 0.0 | 0.03 | 0.28 | 0.28 | 97 | 1016.7 |
| 20260901133607 | 71 | 211 | 0.0 | 0.0 | 0.02 | 0.27 | 0.27 | 97 | 1016.5 |
| 20260901132605 | 71 | 211 | 0.0 | 0.0 | 0.01 | 0.26 | 0.26 | 97 | 1016.5 |
| 20260901132105 | 71 | 211 | 0.0 | 0.0 | 0.01 | 0.26 | 0.26 | 97 | 1016.4 |
| 20260901131606 | 71 | 211 | 0.0 | 0.0 | 0.00 | 0.25 | 0.25 | 97 | 1016.3 |
| 20260901131106 | 71 | 211 | 0.0 | 0.0 | 0.00 | 0.25 | 0.25 | 97 | 1016.3 |
| 20260901130605 | 70 | 211 | 0.0 | 0.0 | 0.00 | 0.25 | 0.25 | 97 | 1016.4 |
| 20260901130105 | 70 | 211 | 0.0 | 0.0 | 0.00 | 0.25 | 0.25 | 97 | 1016.5 |
| 20260901125605 | 70 | 211 | 0.0 | 0.0 | 0.00 | 0.25 | 0.25 | 97 | 1016.4 |
| 20260901125105 | 70 | 204 | 0.0 | 0.0 | 0.00 | 0.25 | 0.25 | 96 | 1016.5 |
| 20260901124605 | 70 | 204 | 0.0 | 1.0 | 0.00 | 0.25 | 0.25 | 96 | 1016.5 |
| 20260901124105 | 70 | 204 | 0.0 | 0.0 | 0.00 | 0.25 | 0.25 | 96 | 1016.5 |
| 20260901123606 | 70 | 204 | 0.0 | 1.0 | 0.00 | 0.25 | 0.25 | 96 | 1016.6 |
| 20260901122605 | 70 | 204 | 0.0 | 0.0 | 0.00 | 0.25 | 0.25 | 97 | 1016.5 |
| 20260901121605 | 70 | 204 | 0.0 | 0.0 | 0.00 | 0.25 | 0.25 | 96 | 1016.5 |
| 20260901121106 | 70 | 204 | 0.0 | 1.0 | 0.00 | 0.25 | 0.25 | 96 | 1016.6 |
| 20260901120605 | 70 | 204 | 0.0 | 1.0 | 0.01 | 0.25 | 0.25 | 96 | 1016.6 |
| 20260901120106 | 70 | 204 | 0.0 | 0.0 | 0.01 | 0.25 | 0.25 | 96 | 1016.6 |
| 20260901115605 | 70 | 204 | 0.0 | 1.0 | 0.01 | 0.25 | 0.25 | 96 | 1016.7 |
| 20260901115105 | 70 | 204 | 0.0 | 0.0 | 0.01 | 0.25 | 0.25 | 96 | 1016.6 |
| 20260901114605 | 69 | 204 | 0.0 | 1.0 | 0.01 | 0.25 | 0.25 | 96 | 1016.5 |
| 20260901114105 | 69 | 204 | 0.0 | 1.0 | 0.01 | 0.25 | 0.25 | 96 | 1016.5 |
| 20260901113605 | 69 | 161 | 0.0 | 1.0 | 0.01 | 0.25 | 0.25 | 96 | 1016.4 |
| 20260901113105 | 69 | 169 | 0.0 | 2.0 | 0.01 | 0.25 | 0.25 | 96 | 1016.5 |
| 20260901112614 | 69 | 209 | 0.0 | 1.0 | 0.01 | 0.25 | 0.25 | 96 | 1016.5 |
| 20260901112105 | 69 | 209 | 0.0 | 0.0 | 0.01 | 0.25 | 0.25 | 96 | 1016.5 |
| 20260901111605 | 69 | 209 | 0.0 | 0.0 | 0.01 | 0.25 | 0.25 | 96 | 1016.4 |
| 20260901111106 | 69 | 209 | 0.0 | 0.0 | 0.01 | 0.25 | 0.25 | 96 | 1016.4 |
| 20260901110606 | 69 | 209 | 0.0 | 1.0 | 0.00 | 0.24 | 0.24 | 96 | 1016.5 |
| 20260901110105 | 69 | 209 | 0.0 | 1.0 | 0.00 | 0.24 | 0.24 | 96 | 1016.6 |
| 20260901105605 | 69 | 209 | 0.0 | 1.0 | 0.00 | 0.24 | 0.24 | 96 | 1016.5 |
| 20260901105106 | 69 | 209 | 0.0 | 1.0 | 0.00 | 0.24 | 0.24 | 96 | 1016.4 |
| 20260901104605 | 69 | 209 | 0.0 | 0.0 | 0.00 | 0.24 | 0.24 | 96 | 1016.5 |
| 20260901104106 | 69 | 209 | 0.0 | 1.0 | 0.00 | 0.24 | 0.24 | 96 | 1016.3 |
| 20260901103605 | 69 | 209 | 0.0 | 1.0 | 0.00 | 0.24 | 0.24 | 96 | 1016.4 |
| 20260901103106 | 69 | 209 | 0.0 | 1.0 | 0.00 | 0.24 | 0.24 | 96 | 1016.4 |
| 20260901102605 | 69 | 209 | 0.0 | 0.0 | 0.00 | 0.24 | 0.24 | 96 | 1016.2 |
| 20260901102105 | 69 | 209 | 0.0 | 0.0 | 0.00 | 0.24 | 0.24 | 96 | 1016.3 |
| 20260901101605 | 69 | 209 | 0.0 | 0.0 | 0.00 | 0.24 | 0.24 | 96 | 1016.3 |
| 20260901100606 | 69 | 209 | 0.0 | 1.0 | 0.00 | 0.24 | 0.24 | 96 | 1016.1 |
| 20260901100105 | 69 | 212 | 0.0 | 1.0 | 0.01 | 0.24 | 0.24 | 96 | 1016.2 |
| 20260901095605 | 69 | 212 | 0.0 | 1.0 | 0.01 | 0.24 | 0.24 | 95 | 1016.3 |
| 20260901095105 | 69 | 212 | 0.0 | 0.0 | 0.01 | 0.24 | 0.24 | 95 | 1016.4 |
| 20260901094605 | 69 | 212 | 0.0 | 1.0 | 0.01 | 0.24 | 0.24 | 95 | 1016.3 |
| 20260901094105 | 69 | 212 | 0.0 | 1.0 | 0.01 | 0.24 | 0.24 | 95 | 1016.3 |
| 20260901093605 | 69 | 212 | 0.0 | 0.0 | 0.01 | 0.24 | 0.24 | 95 | 1016.4 |
| 20260901093105 | 69 | 212 | 0.0 | 0.0 | 0.02 | 0.24 | 0.24 | 95 | 1016.4 |
| 20260901092605 | 69 | 212 | 0.0 | 0.0 | 0.02 | 0.24 | 0.24 | 95 | 1016.4 |
| 20260901092106 | 69 | 212 | 0.0 | 0.0 | 0.02 | 0.24 | 0.24 | 95 | 1016.4 |
| 20260901091105 | 69 | 212 | 0.0 | 0.0 | 0.03 | 0.24 | 0.24 | 95 | 1016.4 |
| 20260901085105 | 69 | 212 | 0.0 | 0.0 | 0.06 | 0.23 | 0.23 | 95 | 1016.7 |
| 20260901084605 | 69 | 212 | 0.0 | 0.0 | 0.06 | 0.23 | 0.23 | 95 | 1016.9 |
| 20260901084105 | 69 | 212 | 0.0 | 0.0 | 0.07 | 0.23 | 0.23 | 95 | 1016.9 |
| 20260901083605 | 69 | 212 | 0.0 | 0.0 | 0.08 | 0.23 | 0.23 | 95 | 1016.9 |
| 20260901083105 | 69 | 212 | 0.0 | 0.0 | 0.07 | 0.22 | 0.22 | 95 | 1016.9 |
| 20260901082106 | 69 | 212 | 0.0 | 0.0 | 0.07 | 0.22 | 0.22 | 95 | 1017.0 |
| 20260901081606 | 69 | 212 | 0.0 | 0.0 | 0.06 | 0.21 | 0.21 | 95 | 1017.0 |
| 20260901081105 | 69 | 212 | 0.0 | 0.0 | 0.07 | 0.21 | 0.21 | 95 | 1017.0 |
| 20260901080605 | 69 | 212 | 0.0 | 0.0 | 0.07 | 0.20 | 0.20 | 95 | 1017.0 |
| 20260901080105 | 69 | 212 | 0.0 | 0.0 | 0.07 | 0.19 | 0.19 | 95 | 1017.0 |
| 20260901075606 | 69 | 213 | 0.0 | 0.0 | 0.09 | 0.18 | 0.18 | 95 | 1017.0 |
| 20260901074105 | 69 | 213 | 0.0 | 0.0 | 0.11 | 0.16 | 0.16 | 94 | 1017.1 |
| 20260901073606 | 69 | 213 | 0.0 | 0.0 | 0.10 | 0.15 | 0.15 | 94 | 1017.1 |
| 20260901073105 | 69 | 213 | 0.0 | 0.0 | 0.11 | 0.15 | 0.15 | 94 | 1017.1 |
| 20260901072606 | 69 | 213 | 0.0 | 0.0 | 0.11 | 0.15 | 0.15 | 94 | 1017.2 |
| 20260901072105 | 69 | 213 | 0.0 | 0.0 | 0.12 | 0.15 | 0.15 | 94 | 1017.2 |
| 20260901071605 | 69 | 213 | 0.0 | 0.0 | 0.14 | 0.15 | 0.15 | 94 | 1017.2 |
| 20260901071105 | 69 | 213 | 0.0 | 0.0 | 0.13 | 0.14 | 0.14 | 94 | 1017.2 |
| 20260901070106 | 69 | 213 | 0.0 | 0.0 | 0.12 | 0.12 | 0.12 | 94 | 1017.1 |
| 20260901065105 | 69 | 213 | 0.0 | 0.0 | 0.06 | 0.06 | 0.06 | 94 | 1017.2 |
| 20260901064605 | 69 | 213 | 0.0 | 0.0 | 0.06 | 0.06 | 0.06 | 94 | 1017.3 |
| 20260901064105 | 69 | 213 | 0.0 | 0.0 | 0.05 | 0.05 | 0.05 | 93 | 1017.3 |
| 20260901063605 | 69 | 213 | 0.0 | 0.0 | 0.05 | 0.05 | 0.05 | 93 | 1017.3 |
| 20260901063105 | 69 | 213 | 0.0 | 0.0 | 0.04 | 0.04 | 0.04 | 93 | 1017.4 |
| 20260901062605 | 69 | 213 | 0.0 | 0.0 | 0.04 | 0.05 | 0.04 | 93 | 1017.4 |
| 20260901061605 | 69 | 213 | 0.0 | 0.0 | 0.01 | 0.02 | 0.01 | 93 | 1017.5 |
| 20260901061106 | 69 | 213 | 0.0 | 0.0 | 0.01 | 0.02 | 0.01 | 93 | 1017.6 |
| 20260901060606 | 69 | 213 | 0.0 | 0.0 | 0.01 | 0.02 | 0.01 | 92 | 1017.6 |
| 20260901060106 | 69 | 213 | 0.0 | 0.0 | 0.00 | 0.01 | 0.00 | 93 | 1017.6 |
| 20260901055605 | 69 | 213 | 0.0 | 0.0 | 0.00 | 0.01 | 0.00 | 92 | 1017.6 |
| 20260901053105 | 69 | 213 | 0.0 | 0.0 | 0.00 | 0.01 | 0.00 | 92 | 1017.8 |
| 20260901052606 | 69 | 213 | 0.0 | 0.0 | 0.00 | 0.01 | 0.00 | 92 | 1017.8 |
| 20260901052105 | 69 | 213 | 0.0 | 0.0 | 0.00 | 0.01 | 0.00 | 92 | 1017.9 |
| 20260901051605 | 69 | 213 | 0.0 | 0.0 | 0.00 | 0.01 | 0.00 | 91 | 1017.9 |
| 20260901050605 | 69 | 213 | 0.0 | 0.0 | 0.00 | 0.01 | 0.00 | 91 | 1018.0 |
| 20260901050105 | 69 | 213 | 0.0 | 0.0 | 0.00 | 0.01 | 0.00 | 91 | 1018.1 |
| 20260901045105 | 70 | 213 | 0.0 | 0.0 | 0.00 | 0.01 | 0.00 | 91 | 1018.0 |
| 20260901044605 | 70 | 213 | 0.0 | 0.0 | 0.00 | 0.01 | 0.00 | 91 | 1018.1 |
| 20260901044105 | 70 | 213 | 0.0 | 0.0 | 0.00 | 0.01 | 0.00 | 91 | 1018.2 |
| 20260901043606 | 70 | 213 | 0.0 | 0.0 | 0.00 | 0.01 | 0.00 | 90 | 1018.2 |
| 20260901043105 | 70 | 213 | 0.0 | 0.0 | 0.00 | 0.01 | 0.00 | 90 | 1018.2 |
| 20260901042605 | 70 | 213 | 0.0 | 0.0 | 0.00 | 0.01 | 0.00 | 90 | 1018.2 |
| 20260901041605 | 70 | 213 | 0.0 | 0.0 | 0.00 | 0.01 | 0.00 | 90 | 1018.2 |
| 20260901041106 | 70 | 213 | 0.0 | 0.0 | 0.00 | 0.01 | 0.00 | 90 | 1018.1 |
| 20260901040605 | 70 | 213 | 0.0 | 0.0 | 0.00 | 0.01 | 0.00 | 90 | 1018.1 |
| 20260901035106 | 70 | 213 | 0.0 | 1.0 | 0.00 | 0.01 | 0.01 | 89 | 1018.2 |
| 20260901034605 | 70 | 213 | 0.0 | 1.0 | 0.00 | 0.01 | 0.01 | 89 | 1018.1 |
| 20260901034105 | 70 | 213 | 0.0 | 0.0 | 0.00 | 0.01 | 0.01 | 89 | 1018.2 |
| 20260901033606 | 70 | 213 | 0.0 | 1.0 | 0.00 | 0.01 | 0.01 | 88 | 1018.2 |
| 20260901033105 | 70 | 213 | 0.0 | 1.0 | 0.00 | 0.01 | 0.01 | 88 | 1018.3 |
| 20260901032605 | 70 | 213 | 0.0 | 0.0 | 0.00 | 0.01 | 0.01 | 88 | 1018.4 |
| 20260901032104 | 70 | 213 | 0.0 | 0.0 | 0.00 | 0.01 | 0.01 | 88 | 1018.5 |
| 20260901031604 | 70 | 213 | 0.0 | 0.0 | 0.00 | 0.01 | 0.01 | 88 | 1018.5 |
| 20260901031105 | 70 | 213 | 0.0 | 0.0 | 0.00 | 0.01 | 0.01 | 88 | 1018.6 |
| 20260901030105 | 70 | 213 | 0.0 | 1.0 | 0.00 | 0.01 | 0.01 | 87 | 1018.7 |
| 20260901025105 | 70 | 198 | 1.0 | 2.0 | 0.00 | 0.01 | 0.01 | 87 | 1018.6 |
| 20260901024605 | 70 | 198 | 0.0 | 1.0 | 0.00 | 0.01 | 0.01 | 87 | 1018.7 |